Regional Weather Roundup
Issued by NWS

Home | Current Version | Previous Version | Text Only | Print | Product List | Glossary Off
Versions: 1 2 3 4 5 6 7 8 9 10 11 12 13 14 15 16 17 18 19 20 21 22 23 24 25 26 27 28 29 30 31 32 33 34 35 36 37 38 39 40 41 42 43 44 45 46 47 48 49 50

000
ASUS43 KLMK 290902
RWRKY
KENTUCKY REGIONAL WEATHER ROUNDUP
NATIONAL WEATHER SERVICE LOUISVILLE KY
400 AM EST THU JAN 29 2015

NOTE "FAIR" INDICATES FEW OR NO CLOUDS BELOW 12,000 FEET
WITH NO SIGNIFICANT WEATHER AND/OR OBSTRUCTIONS TO VISIBILITY.

KYZ001>023-026-027-061>063-070>075-291000-
WESTERN AND SOUTH CENTRAL KENTUCKY

CITY           SKY/WX    TMP DP  RH WIND       PRES   REMARKS
PADUCAH        CLOUDY    53  34  48 S16G26    29.91F
HENDERSON      CLOUDY    46  32  57 S12G18    29.90F
OWENSBORO      LGT RAIN  46  33  60 S17       29.94F
HOPKINSVILLE   MOCLDY    50  29  44 S13G20    30.00F
BOWLING GREEN  CLOUDY    46  26  45 S14G22    30.05F
GLASGOW        NOT AVBL
$$

KYZ024-025-028>034-038-045-046-053-291000-
NORTH CENTRAL KENTUCKY

CITY           SKY/WX    TMP DP  RH WIND       PRES   REMARKS
LOUISVILLE/SDF CLOUDY    42  22  44 SE12      30.00F
LOUISVILLE/LOU CLOUDY    40  20  44 S5        30.01F
FORT KNOX      MIX PCPN  43  25  49 S16       29.97F
$$

KYZ035>037-039>044-047>052-055>060-089>105-291000-
NORTHEAST KENTUCKY

CITY           SKY/WX    TMP DP  RH WIND       PRES   REMARKS
LEXINGTON      CLOUDY    35  19  52 S13       30.05F WCI  26
COVINGTON      CLOUDY    34  21  59 S14       30.00F WCI  25
FRANKFORT      CLOUDY    35  18  49 S8        30.02F WCI  29
$$

KYZ054-064>069-076>088-106>120-291000-
SOUTHEAST KENTUCKY

CITY           SKY/WX    TMP DP  RH WIND       PRES   REMARKS
JACKSON        MOCLDY    33  18  53 S3        30.10F
LONDON         CLOUDY    32  20  61 SE5       30.12F WCI  27
SOMERSET       NOT AVBL
MIDDLESBORO    NOT AVBL
MONTICELLO     PTSUNNY   43  18  36 S10       30.11F
$$




USA.gov is the U.S. government's official web portal to all federal, state and local government web resources and services.